�������l�o���
Date,Time,MP-1(��Sv/h),MP-2(��Sv/h),MP-3(��Sv/h),MP-4(��Sv/h),MP-5(��Sv/h),MP-6(��Sv/h),MP-7(��Sv/h),MP-8(��Sv/h),����,����(m/s),���J
2022/06/12,00:00,0.555,0.813,0.520,0.988,0.692,0.342,0.579,0.551,�k,1.7,��
2022/06/12,00:10,0.555,0.813,0.519,0.987,0.691,0.340,0.580,0.552,�k�k��,1.7,��
2022/06/12,00:20,0.554,0.813,0.520,0.987,0.691,0.341,0.579,0.551,�k�k��,1.5,��
2022/06/12,00:30,0.554,0.813,0.521,0.989,0.693,0.341,0.581,0.551,�k�k��,1.7,��
2022/06/12,00:40,0.555,0.812,0.520,0.988,0.692,0.341,0.581,0.553,�k��,1.7,��
2022/06/12,00:50,0.555,0.812,0.521,0.987,0.693,0.340,0.580,0.554,�k��,1.9,��
2022/06/12,01:00,0.555,0.813,0.520,0.987,0.693,0.340,0.582,0.554,�k��,2.0,��
2022/06/12,01:10,0.554,0.812,0.520,0.987,0.693,0.341,0.578,0.552,�k�k��,1.4,��
2022/06/12,01:20,0.556,0.812,0.519,0.988,0.694,0.340,0.580,0.553,�k��,1.7,��
2022/06/12,01:30,0.556,0.813,0.522,0.988,0.694,0.341,0.582,0.553,�k�k��,1.4,�L
2022/06/12,01:40,0.555,0.815,0.521,0.988,0.692,0.342,0.579,0.552,�k��,3.0,��
2022/06/12,01:50,0.556,0.814,0.521,0.989,0.692,0.342,0.581,0.553,�k�k��,2.9,��
2022/06/12,02:00,0.557,0.814,0.521,0.987,0.694,0.341,0.581,0.554,�k�k��,3.4,�L
2022/06/12,02:10,0.557,0.813,0.523,0.990,0.694,0.341,0.582,0.553,�k�k��,4.3,�L
2022/06/12,02:20,0.555,0.813,0.520,0.987,0.694,0.342,0.581,0.552,�k�k��,3.1,��
2022/06/12,02:30,0.556,0.813,0.523,0.990,0.693,0.342,0.582,0.553,�k,3.3,�L
2022/06/12,02:40,0.557,0.814,0.521,0.989,0.694,0.342,0.582,0.553,�k,3.6,�L
2022/06/12,02:50,0.556,0.814,0.522,0.989,0.696,0.344,0.581,0.554,�k�k��,3.7,�L
2022/06/12,03:00,0.557,0.813,0.520,0.988,0.693,0.342,0.581,0.553,�k�k��,3.6,�L
2022/06/12,03:10,0.555,0.812,0.522,0.989,0.692,0.341,0.581,0.553,�k�k��,4.0,�L
2022/06/12,03:20,0.555,0.812,0.522,0.988,0.694,0.343,0.581,0.553,�k�k��,4.5,�L
2022/06/12,03:30,0.556,0.812,0.521,0.990,0.693,0.343,0.582,0.554,�k�k��,2.0,�L
2022/06/12,03:40,0.555,0.813,0.520,0.989,0.695,0.342,0.581,0.553,�k�k��,3.2,�L
2022/06/12,03:50,0.557,0.814,0.521,0.988,0.694,0.341,0.582,0.553,�k�k��,2.6,�L
2022/06/12,04:00,0.556,0.812,0.518,0.989,0.693,0.342,0.583,0.555,�k�k��,3.5,�L
2022/06/12,04:10,0.554,0.812,0.519,0.987,0.692,0.341,0.581,0.553,�k,3.2,�L
2022/06/12,04:20,0.555,0.813,0.520,0.987,0.692,0.342,0.580,0.553,�k�k��,3.7,�L
2022/06/12,04:30,0.553,0.811,0.519,0.989,0.692,0.340,0.579,0.552,�k�k��,4.2,�L
2022/06/12,04:40,0.555,0.812,0.521,0.987,0.694,0.340,0.580,0.552,�k�k��,3.3,�L
2022/06/12,04:50,0.556,0.813,0.519,0.987,0.692,0.340,0.580,0.553,�k�k��,3.0,�L
2022/06/12,05:00,0.555,0.811,0.521,0.987,0.694,0.340,0.581,0.553,�k�k��,2.9,�L
2022/06/12,05:10,0.554,0.812,0.519,0.988,0.693,0.341,0.582,0.553,�k�k��,3.1,�L
2022/06/12,05:20,0.555,0.810,0.520,0.990,0.691,0.341,0.580,0.553,�k�k��,3.8,�L
2022/06/12,05:30,0.555,0.810,0.520,0.986,0.693,0.340,0.581,0.553,�k�k��,3.0,�L
2022/06/12,05:40,0.553,0.810,0.519,0.986,0.693,0.343,0.580,0.552,�k�k��,4.0,�L
2022/06/12,05:50,0.541,0.780,0.508,0.960,0.671,0.338,0.578,0.550,�k��,1.9,�L
2022/06/12,06:00,0.536,0.774,0.504,0.943,0.654,0.333,0.575,0.551,�k,7.4,�L
2022/06/12,06:10,0.536,0.772,0.507,0.938,0.653,0.336,0.569,0.538,�k,7.5,�L
2022/06/12,06:20,0.535,0.774,0.505,0.939,0.652,0.335,0.568,0.538,�k�k��,9.9,�L
2022/06/12,06:30,0.527,0.760,0.500,0.928,0.644,0.334,0.565,0.537,�k�k��,5.4,�L
2022/06/12,06:40,0.530,0.762,0.497,0.924,0.643,0.332,0.561,0.535,�k�k��,7.5,�L
2022/06/12,06:50,0.531,0.769,0.501,0.930,0.647,0.334,0.564,0.538,�k,7.5,�L
2022/06/12,07:00,0.535,0.771,0.504,0.934,0.650,0.336,0.565,0.538,�k�k��,4.9,�L
2022/06/12,07:10,0.537,0.773,0.503,0.938,0.649,0.335,0.566,0.537,�k�k��,5.7,�L
2022/06/12,07:20,0.538,0.775,0.503,0.938,0.651,0.336,0.566,0.538,�k,6.1,�L
2022/06/12,07:30,0.538,0.779,0.505,0.941,0.654,0.336,0.566,0.539,�k,5.8,�L
2022/06/12,07:40,0.539,0.778,0.504,0.944,0.654,0.334,0.567,0.539,�k,5.0,�L
2022/06/12,07:50,0.540,0.780,0.507,0.944,0.654,0.336,0.569,0.540,�k,5.2,�L
2022/06/12,08:00,0.539,0.781,0.505,0.945,0.654,0.336,0.566,0.539,�k�k��,6.1,�L
2022/06/12,08:10,0.539,0.780,0.505,0.945,0.652,0.335,0.566,0.539,�k�k��,6.0,�L
2022/06/12,08:20,0.538,0.778,0.505,0.946,0.655,0.335,0.568,0.540,�k�k��,7.3,�L
2022/06/12,08:30,0.539,0.773,0.504,0.941,0.649,0.335,0.567,0.540,�k�k��,7.2,�L
2022/06/12,08:40,0.537,0.776,0.505,0.943,0.651,0.334,0.567,0.540,�k�k��,7.1,�L
2022/06/12,08:50,0.540,0.777,0.505,0.944,0.650,0.333,0.567,0.540,�k�k��,7.1,�L
2022/06/12,09:00,0.537,0.776,0.507,0.945,0.652,0.334,0.566,0.540,�k,4.7,�L
2022/06/12,09:10,0.538,0.777,0.505,0.947,0.652,0.334,0.565,0.539,�k�k��,5.0,�L
2022/06/12,09:20,0.537,0.776,0.505,0.947,0.655,0.332,0.565,0.540,�k�k��,5.8,�L
2022/06/12,09:30,0.537,0.779,0.505,0.948,0.652,0.334,0.565,0.539,�k�k��,5.8,�L
2022/06/12,09:40,0.538,0.779,0.504,0.949,0.654,0.334,0.565,0.539,�k,5.0,�L
2022/06/12,09:50,0.537,0.779,0.505,0.949,0.654,0.334,0.564,0.539,�k�k��,6.0,�L
2022/06/12,10:00,0.536,0.778,0.504,0.947,0.651,0.333,0.564,0.539,�k�k��,7.1,�L
2022/06/12,10:10,0.535,0.773,0.505,0.946,0.651,0.333,0.563,0.538,�k,7.1,�L
2022/06/12,10:20,0.534,0.777,0.504,0.948,0.651,0.333,0.564,0.538,�k,6.9,�L
2022/06/12,10:30,0.535,0.779,0.506,0.948,0.652,0.333,0.564,0.539,�k,7.6,�L
2022/06/12,10:40,0.535,0.778,0.505,0.948,0.652,0.333,0.564,0.539,�k�k��,7.4,�L
2022/06/12,10:50,0.536,0.780,0.505,0.949,0.652,0.332,0.565,0.538,�k�k��,6.6,�L
2022/06/12,11:00,0.537,0.780,0.506,0.949,0.653,0.331,0.563,0.542,�k�k��,7.0,�L
2022/06/12,11:10,0.536,0.779,0.505,0.951,0.655,0.333,0.565,0.541,�k�k��,6.4,�L
2022/06/12,11:20,0.536,0.776,0.503,0.950,0.649,0.334,0.563,0.540,�k,3.5,�L
2022/06/12,11:30,0.526,0.767,0.500,0.939,0.643,0.334,0.561,0.537,-,CALM,�L
2022/06/12,11:40,0.523,0.764,0.498,0.928,0.635,0.330,0.556,0.534,�k,5.4,�L
2022/06/12,11:50,0.527,0.766,0.501,0.935,0.640,0.332,0.558,0.533,�k�k��,8.6,�L
2022/06/12,12:00,0.526,0.764,0.502,0.934,0.640,0.332,0.559,0.533,�k�k��,7.5,�L
2022/06/12,12:10,0.526,0.763,0.499,0.929,0.635,0.330,0.556,0.532,�k�k��,10.2,�L
2022/06/12,12:20,0.528,0.760,0.497,0.927,0.633,0.331,0.556,0.532,���쓌,2.8,�L
2022/06/12,12:30,0.529,0.764,0.500,0.929,0.637,0.332,0.558,0.531,�k,5.9,�L
2022/06/12,12:40,0.534,0.769,0.502,0.933,0.640,0.333,0.559,0.534,�k�k��,6.3,�L
2022/06/12,12:50,0.536,0.770,0.503,0.935,0.641,0.335,0.559,0.536,�k�k��,5.2,�L
2022/06/12,13:00,0.533,0.772,0.501,0.937,0.641,0.335,0.561,0.537,�k�k��,4.8,�L
2022/06/12,13:10,0.534,0.769,0.504,0.939,0.642,0.336,0.560,0.537,�k�k��,5.7,�L
2022/06/12,13:20,0.536,0.771,0.504,0.938,0.640,0.334,0.561,0.538,�k�k��,5.5,�L
2022/06/12,13:30,0.537,0.775,0.505,0.940,0.641,0.335,0.563,0.538,�k�k��,4.0,�L
2022/06/12,13:40,0.537,0.776,0.505,0.941,0.643,0.336,0.563,0.538,�k,5.5,�L
2022/06/12,13:50,0.539,0.775,0.505,0.944,0.644,0.335,0.563,0.538,�k�k��,5.7,�L
2022/06/12,14:00,0.539,0.776,0.507,0.945,0.642,0.335,0.562,0.540,�k,5.9,�L
2022/06/12,14:10,0.537,0.776,0.506,0.944,0.642,0.335,0.563,0.539,�k�k��,5.5,�L
2022/06/12,14:20,0.539,0.778,0.507,0.944,0.643,0.335,0.563,0.540,�k�k��,5.1,�L
2022/06/12,14:30,0.540,0.777,0.506,0.945,0.644,0.335,0.565,0.539,�k,4.6,��
2022/06/12,14:40,0.538,0.777,0.506,0.946,0.645,0.335,0.564,0.539,�k,6.5,��
2022/06/12,14:50,0.537,0.781,0.506,0.949,0.647,0.335,0.564,0.539,�k�k��,5.6,��
2022/06/12,15:00,0.539,0.780,0.507,0.950,0.644,0.336,0.565,0.541,�k,7.8,��
2022/06/12,15:10,0.537,0.779,0.505,0.948,0.646,0.334,0.566,0.540,�k,6.8,��
2022/06/12,15:20,0.538,0.780,0.503,0.950,0.645,0.334,0.565,0.540,�k,6.2,��
2022/06/12,15:30,0.537,0.780,0.503,0.951,0.646,0.332,0.565,0.540,�k,6.3,��
2022/06/12,15:40,0.539,0.780,0.503,0.951,0.645,0.332,0.566,0.540,�k,6.7,��
2022/06/12,15:50,0.539,0.780,0.503,0.955,0.647,0.334,0.565,0.541,�k�k��,6.7,��
2022/06/12,16:00,0.537,0.780,0.502,0.951,0.647,0.333,0.566,0.541,�k�k��,6.9,��
2022/06/12,16:10,0.538,0.782,0.504,0.954,0.646,0.332,0.566,0.543,�k�k��,6.3,��
2022/06/12,16:20,0.539,0.781,0.504,0.955,0.647,0.331,0.565,0.542,�k�k��,5.9,��
2022/06/12,16:30,0.539,0.781,0.503,0.955,0.647,0.333,0.566,0.541,�k�k��,5.1,��
2022/06/12,16:40,0.540,0.782,0.506,0.954,0.649,0.333,0.567,0.541,�k,4.6,��
2022/06/12,16:50,0.541,0.784,0.505,0.956,0.649,0.331,0.567,0.540,�k,4.4,��
2022/06/12,17:00,0.539,0.783,0.507,0.955,0.651,0.333,0.567,0.542,�k,3.3,��
2022/06/12,17:10,0.541,0.784,0.506,0.956,0.651,0.333,0.567,0.542,�k�k��,2.5,��
2022/06/12,17:20,0.539,0.786,0.505,0.958,0.650,0.333,0.567,0.541,�k�k��,2.9,��
2022/06/12,17:30,0.540,0.785,0.507,0.957,0.652,0.333,0.567,0.543,�k�k��,2.0,��
2022/06/12,17:40,0.541,0.786,0.506,0.959,0.652,0.335,0.567,0.543,�k,2.0,��
2022/06/12,17:50,0.540,0.786,0.505,0.960,0.652,0.334,0.567,0.543,�k,1.7,��
2022/06/12,18:00,0.541,0.788,0.507,0.959,0.652,0.332,0.568,0.542,�k�k��,2.3,��
2022/06/12,18:10,0.541,0.787,0.506,0.958,0.653,0.335,0.568,0.542,�k�k��,2.0,��
2022/06/12,18:20,0.540,0.789,0.507,0.958,0.654,0.334,0.568,0.542,�k�k��,2.3,��
2022/06/12,18:30,0.541,0.789,0.507,0.959,0.652,0.334,0.569,0.542,�k�k��,1.7,��
2022/06/12,18:40,0.542,0.788,0.507,0.959,0.654,0.334,0.568,0.542,�k��,2.0,��
2022/06/12,18:50,0.544,0.790,0.506,0.962,0.654,0.335,0.570,0.544,���k��,0.9,��
2022/06/12,19:00,0.544,0.788,0.508,0.960,0.655,0.334,0.568,0.545,���k��,0.6,��
2022/06/12,19:10,0.542,0.790,0.508,0.962,0.655,0.335,0.568,0.546,�k��,1.1,��
2022/06/12,19:20,0.543,0.790,0.508,0.960,0.655,0.334,0.568,0.546,���k��,1.7,��
2022/06/12,19:30,0.542,0.788,0.508,0.963,0.656,0.334,0.568,0.547,�k��,2.0,��
2022/06/12,19:40,0.542,0.789,0.507,0.963,0.656,0.335,0.570,0.546,�k��,2.3,��
2022/06/12,19:50,0.541,0.789,0.507,0.962,0.656,0.335,0.571,0.544,���k��,1.7,��
2022/06/12,20:00,0.542,0.791,0.508,0.961,0.656,0.335,0.571,0.546,���k��,1.7,��
2022/06/12,20:10,0.544,0.789,0.507,0.962,0.656,0.335,0.570,0.545,�k�k��,1.4,��
2022/06/12,20:20,0.542,0.791,0.506,0.963,0.657,0.335,0.571,0.545,�k��,1.2,��
2022/06/12,20:30,0.542,0.791,0.506,0.962,0.658,0.335,0.570,0.545,-,CALM,��
2022/06/12,20:40,0.542,0.790,0.507,0.964,0.657,0.334,0.570,0.543,-,CALM,��
2022/06/12,20:50,0.542,0.790,0.506,0.961,0.657,0.335,0.571,0.544,-,CALM,��
2022/06/12,21:00,0.540,0.786,0.507,0.962,0.658,0.335,0.572,0.544,�k��,1.7,��
2022/06/12,21:10,0.542,0.788,0.506,0.965,0.658,0.334,0.573,0.545,�k��,1.1,��
2022/06/12,21:20,0.540,0.790,0.506,0.963,0.656,0.334,0.571,0.545,��,0.9,��
2022/06/12,21:30,0.543,0.791,0.508,0.963,0.658,0.335,0.570,0.544,��,1.7,��
2022/06/12,21:40,0.542,0.792,0.508,0.962,0.658,0.335,0.570,0.545,��,2.6,��
2022/06/12,21:50,0.542,0.791,0.509,0.964,0.658,0.335,0.572,0.545,��,2.0,��
2022/06/12,22:00,0.542,0.789,0.508,0.963,0.657,0.336,0.572,0.545,��,2.2,��
2022/06/12,22:10,0.542,0.791,0.507,0.964,0.658,0.336,0.572,0.546,���k��,2.3,��
2022/06/12,22:20,0.542,0.790,0.505,0.965,0.659,0.334,0.571,0.544,���k��,2.0,��
2022/06/12,22:30,0.542,0.791,0.507,0.963,0.657,0.335,0.571,0.546,�k�k��,2.0,��
2022/06/12,22:40,0.541,0.792,0.505,0.962,0.659,0.334,0.572,0.545,�k�k��,2.0,��
2022/06/12,22:50,0.543,0.790,0.508,0.964,0.658,0.335,0.570,0.545,���k��,3.0,��
2022/06/12,23:00,0.542,0.791,0.508,0.966,0.658,0.334,0.571,0.547,���k��,5.8,��
2022/06/12,23:10,0.543,0.791,0.508,0.964,0.659,0.337,0.573,0.545,���k��,5.4,��
2022/06/12,23:20,0.544,0.791,0.508,0.966,0.661,0.336,0.571,0.545,�k��,6.6,��
2022/06/12,23:30,0.543,0.792,0.510,0.965,0.660,0.335,0.572,0.546,�k��,7.5,��
2022/06/12,23:40,0.543,0.789,0.508,0.968,0.661,0.336,0.573,0.546,�k��,5.7,��
2022/06/12,23:50,0.544,0.792,0.509,0.965,0.660,0.335,0.572,0.545,�k��,5.5,��
